Volver al catálogo

IRIDIUM 141

ActivoComunicacionesPO
NORAD 43077·PAYLOAD·🇺🇸 United States

Lanzado Dec 23, 2017 desde Vandenberg Space Force Base

Loading…

Próximos Pases (próximas 24 horas)

TLE

ActualizadoSource: CelesTrak SupGP

Época: Sep 14, 2026, 21:00 UTC

1 43077C 17083H   26257.87534722  .00002397  00000+0  85704-3 0  2574
2 43077  86.3913 284.4947 0002329  94.0931  11.8169 14.34213948    19

Sigue IRIDIUM 141 en tiempo real con AllMySat

Download on the App Store